Battle Mountain, Nevada, United States (89820)
Lat: 40.64N, Lon: 116.93W
Wx Zone: NVZ036
Local Info
Past Weather Observations for Monday, April 14, 2014

NOTE: This archive is for the closest National Weather Service station to Battle Mountain. Information may differ from the station used for current weather conditions.

Time Weather Temperature Dewpoint Humidity Pressure Winds Precip Visibility
23:56
Clear
37°F / 3°C 16°F / -9°C 41% 30.09 in
(1019 mb)
SW 6.9 mph
(SW 11 kph)
- 10SM
22:56
Clear
37°F / 3°C 14°F / -10°C 38% 30.09 in
(1019 mb)
SE 5.8 mph
(SE 9 kph)
- 10SM
21:56
Clear
45°F / 7°C 14°F / -10°C 29% 30.09 in
(1019 mb)
S 9.2 mph
(S 15 kph)
- 10SM
20:56
Clear
41°F / 5°C 18°F / -8°C 39% 30.12 in
(1020 mb)
S 6.9 mph
(S 11 kph)
- 10SM
19:56
Clear
45°F / 7°C 18°F / -8°C 34% 30.09 in
(1019 mb)
SSE 6.9 mph
(SSE 11 kph)
- 10SM
18:56
Clear
54°F / 12°C 12°F / -11°C 19% 30.09 in
(1019 mb)
Calm - 10SM
17:56
Clear
61°F / 16°C 10°F / -12°C 13% 30.09 in
(1019 mb)
S 3.5 mph
(S 6 kph)
- 10SM
16:56
Clear
64°F / 18°C 9°F / -13°C 11% 30.12 in
(1020 mb)
SW 8.1 mph
(SW 13 kph)
- 10SM
15:56
Clear
64°F / 18°C 5°F / -15°C 9% 30.12 in
(1020 mb)
Variable 4.6 mph
(Variable 7 kph)
- 10SM
14:56
Clear
64°F / 18°C 3°F / -16°C 8% 30.15 in
(1021 mb)
ENE 5.8 mph
(ENE 9 kph)
- 10SM
13:56
Clear
64°F / 18°C 5°F / -15°C 9% 30.18 in
(1022 mb)
SW 5.8 mph
(SW 9 kph)
- 10SM
12:56
Clear
63°F / 17°C 3°F / -16°C 9% 30.21 in
(1023 mb)
SE 4.6 mph
(SE 7 kph)
- 10SM
11:56
Clear
61°F / 16°C -4°F / -20°C 7% 30.21 in
(1023 mb)
Calm - 10SM
10:56
Clear
57°F / 14°C 9°F / -13°C 14% 30.24 in
(1024 mb)
Variable 5.8 mph
(Variable 9 kph)
- 10SM
09:56
Clear
54°F / 12°C 10°F / -12°C 18% 30.27 in
(1025 mb)
E 5.8 mph
(E 9 kph)
- 10SM
08:56
Clear
48°F / 9°C 10°F / -12°C 21% 30.27 in
(1025 mb)
ENE 5.8 mph
(ENE 9 kph)
- 10SM
07:56
Clear
45°F / 7°C 10°F / -12°C 25% 30.3 in
(1026 mb)
NE 9.2 mph
(NE 15 kph)
- 10SM
06:56
Clear
37°F / 3°C 10°F / -12°C 33% 30.3 in
(1026 mb)
SE 4.6 mph
(SE 7 kph)
- 10SM
05:56
Clear
30°F / -1°C 10°F / -12°C 43% 30.27 in
(1025 mb)
E 5.8 mph
(E 9 kph)
- 10SM
04:56
Clear
23°F / -5°C 9°F / -13°C 54% 30.27 in
(1025 mb)
Variable 4.6 mph
(Variable 7 kph)
- 10SM
03:56
Clear
25°F / -4°C 9°F / -13°C 50% 30.27 in
(1025 mb)
ENE 6.9 mph
(ENE 11 kph)
- 10SM
02:56
Clear
30°F / -1°C 10°F / -12°C 43% 30.27 in
(1025 mb)
ENE 9.2 mph
(ENE 15 kph)
- 10SM
01:56
Clear
28°F / -2°C 9°F / -13°C 43% 30.27 in
(1025 mb)
Variable 3.5 mph
(Variable 6 kph)
- 10SM
00:56
Clear
30°F / -1°C 9°F / -13°C 40% 30.27 in
(1025 mb)
Variable 6.9 mph
(Variable 11 kph)
- 10SM
Time Weather Temperature Dewpoint Humidity Pressure Winds Precip Visibility


Weather for websites

WeatherForYou.com, LLC is not responsible for any damages or problems caused by this service. Current weather conditions are obtained from the closest station including government and personal stations which may have varying degrees of accuracy. Weather forecasts are derived from the NOAA NDFD. Like all things, this site belongs to Jesus Christ... He just trusts me to maintain it. If you have any questions or comments email webmaster@weatherforyou.com

Copyright © 2014, WeatherForYou.com LLC. All rights reserved.